Location: Days
(41.3591°N, 106.7339°W)
Time: 18:59:59
(UTC+00:00)

AIST 2D - Pass Details

Date: 02 July 2022
Orbit: 433 x 443 km, 97.0° (Epoch: 17 August)

Event Time Altitude Azimuth Distance (km) Brightness Sun altitude
Rises 04:31:02 0° 15° (NNE) 2,424 ? -15.7°
Reaches altitude 10° 04:33:04 10° 19° (NNE) 1,552 ? -15.9°
Maximum altitude 04:36:22 61° 100° (E) 500 ? -16.3°
Enters shadow 04:37:20 40° 162° (SSE) 660 ? -16.4°
